www.pogodaiklimat.ru

Погода и климат >> Архив погоды >> Австралия >> Западная Австралия >> Фицрой-Кроссинг


ПОГОДА в Фицрой-Кроссинге

  • Прогноз погоды в Фицрой-Кроссинге
  • Монитор погоды в Фицрой-Кроссинге

АРХИВ ПОГОДЫ в Фицрой-Кроссинге

Время (UTC), дата Ветер
(напр.,м/с)
 
Видим.   Явления Облачность Т
(С)
Тd
(С)
f
(%)
Тe
(С)
Тes
(С)
Комфортность P
(гПа)
Po
(гПа)
Тmin
(С)
Tmax
(С)
R
(мм)
R24
(мм)
S
(см)
13 10.09 ЮВ 4 н/о н/о +22.2 -15.2 7 +20 +20 1018.4 1005.3 +35.2
15 10.09 ЮВ 4 н/о н/о +20.4 -14.9 8 +20 +20 1018.9 1005.8
16 10.09 ЮВ 4 н/о н/о +20.8 -14.6 8 +20 +20 1018.8 1005.7
18 10.09 В 4 н/о н/о +19.4 -14.2 9 +19 +19 1018.7 1005.6
19 10.09 В 4 н/о н/о +18.5 -14.9 9 +18 +18 1018.8 1005.7
21 10.09 В 3 н/о н/о +12.9 -8.9 21 +12 +12 1020.2 1007.0
22 10.09 В 3 н/о н/о +12.2 -7.2 25 +11 +11 1021.1 1007.9
00 11.09 В 4 н/о н/о +25.0 -10.0 9 +22 +22 комфорт 1022.1 1008.9
01 11.09 В 9 н/о н/о +28.7 -10.5 7 +25 +25 комфорт 1021.6 1008.4 +12.0
03 11.09 В 8 н/о н/о +31.9 -12.4 5 +27 +27 жарко 1020.1 1006.9
04 11.09 В 7 н/о н/о +33.0 -14.3 4 +28 +28 жарко 1018.7 1005.6
06 11.09 В 6 н/о н/о +33.7 -17.3 3 +29 +29 жарко 1016.7 1003.6
07 11.09 В 8 н/о н/о +33.1 -17.7 3 +28 +28 жарко 1016.1 1003.0
09 11.09 В 6 н/о н/о +31.6 -15.3 4 +27 +27 жарко 1016.0 1002.9
10 11.09 В 4 н/о н/о +29.2 -16.9 4 +25 +25 комфорт 1016.6 1003.5
12 11.09 ЮВ 3 н/о н/о +23.6 -16.0 6 +21 +21 комфорт 1018.3 1005.2
13 11.09 ЮВ 4 н/о н/о +22.1 -15.3 7 +20 +20 1018.6 1005.5 +34.5
15 11.09 ЮВ 4 н/о н/о +20.0 -15.2 8 +19 +19 1018.7 1005.6
16 11.09 ЮВ 4 н/о н/о +20.2 -15.1 8 +19 +19 1018.7 1005.6
18 11.09 В 4 н/о н/о +19.2 -15.8 8 +19 +19 1018.3 1005.2
19 11.09 штиль 0 н/о н/о +13.2 -10.6 18 +13 +13 1018.5 1005.4
21 11.09 В 2 н/о н/о +12.8 -10.2 19 +13 +13 1019.3 1006.2
22 11.09 штиль 0 н/о н/о +12.2 -10.7 19 +12 +12 1020.4 1007.2
00 12.09 В 3 н/о н/о +24.6 -10.3 9 +22 +22 комфорт 1021.5 1008.3
01 12.09 В 5 н/о н/о +28.5 -12.5 6 +25 +25 комфорт 1021.3 1008.1 +11.5
03 12.09 В 8 н/о н/о +32.4 -14.7 4 +28 +28 жарко 1019.4 1006.3
04 12.09 В 7 н/о н/о +33.0 -17.8 3 +28 +28 жарко 1018.3 1005.2
06 12.09 СВ 5 н/о н/о +33.0 -17.8 3 +28 +28 жарко 1016.2 1003.1
07 12.09 СВ 6 н/о н/о +34.0 -17.1 3 +29 +29 жарко 1015.8 1002.7
09 12.09 В 5 н/о н/о +31.7 -15.2 4 +27 +27 жарко 1016.2 1003.1
10 12.09 В 3 н/о н/о +27.2 -15.7 5 +23 +23 комфорт 1016.7 1003.6
12 12.09 ЮВ 3 н/о н/о +24.4 -13.6 7 +21 +21 комфорт 1017.8 1004.7
13 12.09 ЮВ 2 н/о н/о +20.4 -14.9 8 +20 +20 1018.1 1005.0 +34.8
15 12.09 В 1 н/о н/о +18.3 -10.6 13 +19 +19 1018.0 1004.9
16 12.09 ЮВ 2 н/о н/о +15.8 -11.6 14 +16 +16 1017.5 1004.4
18 12.09 штиль 0 н/о н/о +13.2 -12.0 16 +13 +13 1017.1 1004.0
19 12.09 С 2 н/о н/о +12.7 -11.7 17 +12 +12 1017.3 1004.2
21 12.09 В 2 н/о н/о +12.4 -11.2 18 +12 +12 1018.1 1005.0
22 12.09 штиль 0 н/о н/о +11.7 -8.7 23 +12 +12 1018.8 1005.7
00 13.09 В 5 н/о н/о +26.5 -10.4 8 +23 +23 комфорт 1019.6 1006.4
01 13.09 В 8 н/о н/о +30.1 -13.6 5 +26 +26 жарко 1019.3 1006.2 +10.9
03 13.09 СВ 7 н/о н/о +33.3 -14.1 4 +29 +29 жарко 1018.1 1005.0
04 13.09 В 6 н/о н/о +33.5 -14.0 4 +29 +29 жарко 1017.1 1004.0
06 13.09 В 6 н/о н/о +34.5 -16.8 3 +30 +30 жарко 1015.2 1002.1
07 13.09 В 6 н/о н/о +35.2 -16.3 3 +30 +30 жарко 1014.8 1001.7
09 13.09 В 3 н/о н/о +33.1 -14.3 4 +28 +28 жарко 1014.8 1001.7
10 13.09 В 2 н/о н/о +28.4 -10.7 7 +25 +25 комфорт 1015.3 1002.2
12 13.09 Ю 2 н/о н/о +24.7 -10.3 9 +22 +22 комфорт 1016.3 1003.2
13 13.09 ЮВ 3 н/о н/о +22.6 -9.3 11 +20 +20 1016.7 1003.6 +36.0
15 13.09 В 3 н/о н/о +21.8 -5.9 15 +20 +20 1016.8 1003.7
16 13.09 В 4 н/о н/о +21.9 -5.0 16 +21 +21 комфорт 1016.7 1003.6
18 13.09 В 3 н/о н/о +20.0 -4.3 19 +20 +20 1016.4 1003.3
19 13.09 В 3 н/о н/о +19.7 -4.5 19 +20 +20 1016.3 1003.2
21 13.09 В 3 н/о н/о +17.8 -6.1 19 +18 +18 1017.5 1004.4
22 13.09 В 3 н/о н/о +18.5 -7.0 17 +19 +19 1018.2 1005.1
00 14.09 В 6 н/о н/о +27.4 -9.7 8 +24 +24 комфорт 1019.3 1006.2
01 14.09 В 7 н/о н/о +31.4 -8.5 7 +27 +27 жарко 1018.9 1005.8 +16.1
03 14.09 В 10 н/о н/о +33.7 -6.8 7 +29 +29 жарко 1017.3 1004.2
04 14.09 В 7 н/о н/о +35.1 -7.8 6 +31 +31 жарко 1016.1 1003.0
06 14.09 СВ 7 н/о н/о +35.5 -7.5 6 +31 +31 жарко 1013.9 1000.8
07 14.09 В 4 н/о н/о +35.8 -7.3 6 +31 +31 жарко 1013.7 1000.6
09 14.09 В 4 н/о н/о +33.9 -8.7 6 +29 +29 жарко 1013.9 1000.8
10 14.09 В 2 н/о н/о +29.9 -7.9 8 +26 +26 жарко 1014.5 1001.4
12 14.09 ЮВ 3 н/о н/о +25.7 -6.9 11 +23 +23 комфорт 1015.5 1002.4
13 14.09 В 4 н/о н/о +25.6 -7.0 11 +23 +23 комфорт 1015.5 1002.4 +36.8
15 14.09 В 4 н/о н/о +23.3 -6.6 13 +21 +21 комфорт 1015.3 1002.2
16 14.09 В 4 н/о н/о +22.4 -7.3 13 +21 +21 комфорт 1015.0 1001.9
18 14.09 СВ 2 н/о н/о +18.5 -6.2 18 +19 +19 1014.5 1001.4
19 14.09 С 3 н/о н/о +15.7 -7.2 20 +15 +15 1015.0 1001.9
21 14.09 В 2 н/о н/о +17.4 -5.8 20 +18 +18 1015.7 1002.6
22 14.09 В 1 н/о н/о +18.0 -3.4 23 +19 +19 1016.4 1003.3
00 15.09 СВ 1 н/о н/о +27.8 +4.2 22 +26 +26 жарко 1017.3 1004.2
01 15.09 СВ 3 н/о н/о +31.1 -0.5 13 +28 +28 жарко 1016.9 1003.8 +15.6
03 15.09 В 6 н/о н/о +35.6 -7.5 6 +31 +31 жарко 1014.9 1001.8
04 15.09 В 8 н/о н/о +35.9 -7.2 6 +31 +31 жарко 1014.1 1001.0
06 15.09 В 5 н/о н/о +37.3 -8.6 5 +33 +33 жарко 1012.4 999.3
07 15.09 СВ 5 н/о н/о +36.9 -6.5 6 +33 +33 жарко 1012.1 999.0
09 15.09 В 4 н/о н/о +35.1 -7.8 6 +31 +31 жарко 1012.2 999.1
10 15.09 В 2 н/о н/о +30.7 -7.3 8 +27 +27 жарко 1012.6 999.5
12 15.09 В 3 н/о н/о +26.4 -6.4 11 +24 +24 комфорт 1013.8 1000.7
13 15.09 В 3 н/о н/о +25.5 -6.0 12 +23 +23 комфорт 1014.0 1000.9 +37.9
15 15.09 СВ 1 н/о н/о +21.8 -5.1 16 +21 +21 комфорт 1013.6 1000.5
16 15.09 штиль 0 н/о н/о +21.2 -5.6 16 +20 +20 1013.4 1000.3
18 15.09 СВ 3 н/о н/о +22.9 -4.2 16 +21 +21 комфорт 1013.5 1000.4
19 15.09 СВ 3 н/о н/о +21.6 -2.3 20 +21 +21 комфорт 1013.9 1000.8
21 15.09 С 2 н/о н/о +17.3 -1.4 28 +18 +18 1014.9 1001.8
22 15.09 С 2 н/о н/о +19.4 +5.8 41 +21 +21 комфорт 1015.4 1002.3
00 16.09 ЮВ 1 н/о н/о +26.5 +7.5 30 +26 +26 жарко 1016.7 1003.6
01 16.09 С 2 н/о н/о +29.8 +5.8 22 +28 +28 жарко 1016.4 1003.3 +17.2
03 16.09 СВ 4 н/о н/о +35.0 -1.1 10 +31 +31 жарко 1014.8 1001.7
04 16.09 В 4 н/о н/о +35.8 -5.3 7 +32 +32 жарко 1013.7 1000.6
06 16.09 В 5 н/о н/о +36.3 -7.0 6 +32 +32 жарко 1012.1 999.0
07 16.09 ЮЗ 2 н/о н/о +36.3 -7.0 6 +32 +32 жарко 1011.4 998.4
09 16.09 С 1 н/о н/о +34.8 -8.0 6 +30 +30 жарко 1011.6 998.6
10 16.09 З 2 н/о н/о +31.1 -7.0 8 +27 +27 жарко 1011.9 998.8
12 16.09 ЮЗ 3 н/о н/о +27.6 -6.7 10 +24 +24 комфорт 1013.2 1000.1
13 16.09 ЮЗ 2 н/о н/о +26.1 -5.5 12 +23 +23 комфорт 1013.4 1000.3 +37.1
15 16.09 СВ 3 н/о н/о +21.2 -4.8 17 +20 +20 1013.1 1000.0
16 16.09 штиль 0 н/о н/о +20.7 -3.7 19 +20 +20 1012.7 999.6
18 16.09 СЗ 5 н/о н/о +18.7 -6.1 18 +18 +18 1013.1 1000.0
19 16.09 СЗ 3 н/о н/о +20.1 +2.0 30 +21 +21 комфорт 1013.0 999.9
21 16.09 СЗ 3 н/о н/о +18.6 +9.1 54 +19 +19 1014.2 1001.1
22 16.09 Ю 3 н/о н/о +19.8 +12.6 63 +22 +22 комфорт 1015.4 1002.3
00 17.09 СЗ 6 н/о н/о +27.7 +14.0 43 +30 +30 жарко 1016.5 1003.4
01 17.09 С 5 н/о н/о +30.6 +10.5 29 +31 +31 жарко 1016.5 1003.4 +17.3
03 17.09 СЗ 4 н/о н/о +34.0 +7.9 20 +32 +32 жарко 1015.3 1002.2
06 17.09 В 3 н/о н/о +36.7 -1.3 9 +33 +33 жарко 1012.5 999.4
07 17.09 В 3 н/о н/о +36.8 -1.2 9 +33 +33 жарко 1011.9 998.8
09 17.09 В 3 н/о н/о +35.1 -2.5 9 +31 +31 жарко 1012.4 999.3
10 17.09 штиль 0 н/о н/о +31.5 -1.3 12 +28 +28 жарко 1012.9 999.8

 

Местоположение метеостанции Фицрой-Кроссинг (Западная Австралия, Австралия): широта -18.18 долгота 125.56 высота над уровнем моря 115 м.

В архиве по умолчанию представлена погода в Фицрой-Кроссинге за последнюю неделю. Архивные данные за месяц целиком и за предыдущие месяцы, начиная с января 2011 года, Вы можете получить, выбрав интересующий диапазон дат из раскрывающегося списка и нажав кнопку "Ввод!".


*Определитесь, кто Вы:
робот инопланетянин человек

Внимание! Время в таблицах - всемирное. Для получения местного времени необходимо прибавить поправку, которая равна 8 ч.

Смотрите также архив погоды в соседних городах и на ближайших метеорологических станциях:

Погода на Базе ВВС Curtin (Западная Австралия, Австралия) (196 км)
Погода в Дерби (Северная территория, Австралия) (221 км)
Погода в Холс Крик (Западная Австралия, Австралия) (222 км)
Погода в Робак Запад (Западная Австралия, Австралия) (344 км)
Погода в Аэропорту Аргайл (Западная Австралия, Австралия) (352 км)
Погода в Бруме (Западная Австралия, Австралия) (353 км)
Погода на Острове Адель (Западная Австралия, Австралия) (392 км)
Погода в Уиндеме (Западная Австралия, Австралия) (406 км)
Погода в Кунунарре (Западная Австралия, Австралия) (428 км)
Погода в Калумбуру (Западная Австралия, Австралия) (447 км)

Пояснения к столбцам:

Ветер - указаны скорость ветра в м/с - средняя за 10 мин, порывы в срок и между сроками (в фигурных скобках) и направление, откуда дует ветер: С - северный, СВ - северо-восточный, В - восточный, ЮВ - юго-восточный, Ю - южный, ЮЗ - юго-западный, З - западный, СЗ - северо-западный.
Видимость - горизонтальная дальность видимости в метрах или километрах. При видимости от 1 до 10 км при отсутствии осадков обычно наблюдается дымка, при ухудшении видимости до 1 км и менее - туман. В сухую погоду видимость может ухудшаться дымом, пылью или мглою.
Явления - указаны атмосферные явления, наблюдавшиеся в срок или в последний час перед сроком; фигурными скобками обозначены явления, наблюдавшиеся между сроками (за 1-3 часа до срока); квадратными скобками обозначены град или гололедные отложения с указанием их диаметра в мм.
Облачность - указаны через наклонную черту общая и нижняя облачность в баллах и высота нижней границы облаков в метрах; квадратными скобками обозначены формы облаков: Ci - перистые, Cs - перисто-слоистые, Cc - перисто-кучевые, Ac - высококучевые, As - высокослоистые, Sc - слоисто-кучевые, Ns - слоисто-дождевые, Cu - кучевые, Cb - кучево-дождевые. Подробнее классификацию облаков см. в Атласе облаков (PDF).
T - Температура воздуха - температура, измеренная на высоте 2 м над землей.
Td - Температура точки росы - температура, при понижении до которой содержащийся в воздухе водяной пар достигнет насыщения.
f - Относительная влажность воздуха - влажноcть воздуха, измеренная на высоте 2 м над землей.
Te - Эффективная температура - температура, которую ощущает одетый по сезону человек в тени. Характеристика душности погоды. При расчете учитывается влияние влажности воздуха и скорости ветра на теплоощущения человека.
Tes - Эффективная температура на солнце - температура, которую ощущает человек, с поправкой на солнечный нагрев. Характеристика знойности погоды. Зависит от высоты солнца над горизонтом, облачности и скорости ветра. Ночью, в пасмурную погоду, а также при ветре 12 м/с и более поправка равна нулю.
P - Атмосферное давление - приведенное к уровню моря атмосферное давление.
Po - Атмосферное давление - измеренное на уровне метеостанции атмосферное давление.
Tmin - Минимальная температура - минимум температуры воздуха на высоте 2 м над землей.
Tmax - Максимальная температура - максимум температуры воздуха на высоте 2 м над землей.
R - Количество осадков - Количество выпавших осадков за период времени, мм. При наведении курсора мыши на число - период времени, за который выпало указанное количество осадков.
R24 - Количество осадков - Количество выпавших осадков за 24 часа, мм.
S - Снежный покров - Высота снежного покрова, см. При наведении курсора мыши на число - состояние снежного покрова и степень покрытия местности в баллах.